SCP
0 0 0 0 0 0 0 0 0 0 0 0 0 0 0 0 0 0 0 0 0 0 0 0 0 0 -0 -0 -0 -0 0 0
0 0 0 0 0 0 0 0 0 0 0 0 0 0 0 0 0 0 0 0 0 0 0 0 0 -0 0 -0 -0 -0 -0 -0
0 0 0 0 0 0 0 0 0 0 0 0 0 0 0 0 0 0 0 0 0 0 0 0 0 0 0 -0 -0 0 0 0
0 0 0 0 0 0 0 0 0 0 0 0 0 0 0 0 0 0 0 0 0 0 0 0 0 0 0 0 0 0 0 0
0 0 0 0 0 0 0 0 0 0 0 0 0 0 0 0 0 0 0 0 0 0 0 0 0 0 0 0 0 0 0 0
0 0 0 0 0 0 0 0 0 0 0 0 0 0 0 0 0 0 0 0 0 0 0 0 0 0 0 0 0 0 0 0
0 0 0 0 0 0 0 0 0 0 0 0 0 0 0 0 0 0 0 0 0 0 0 0 0 0 0 0 0 0 0 0
0 0 0 0 0 0 0 0 0 0 0 0 0 0 0 0 0 0 0 0 0 0 0 0 0 0 0 0 0 0 0 0
0 0 0 0 0 0 0 0 0 0 0 0 0 0 0 0 0 0 0 0 0 0 0 0 0 0 0 0 0 0 0 0
0 0 0 0 0 0 0 0 0 0 0 0 0 0 0 0 0 0 0 0 0 -0 0 0 0 0 0 0 0 0 0 0
0 0 0 0 0 0 0 0 0 0 0 0 0 0 0 0 0 0 0 -0 -0 -0 -0 -0 -0 0 0 0 0 0 0 0
0 0 0 0 0 0 0 0 0 0 0 0 0 0 0 0 0 0 0 0 0 -0 -0 -0 -0 -0 -0 -0 -0 0 0 0
0 0 0 0 0 0 0 0 0 0 0 0 0 0 0 0 0 0 0 -0 -0 -0 -0 -0 -0 -0 -0 -0 -0 0 0 0
0 0 0 0 0 0 0 0 0 0 0 0 0 0 0 0 0 0 0 -0 -0 -0 -0 -0 -0 -0 -0 -0 -0 -0 0 0
0 0 0 0 0 0 0 0 0 0 0 0 0 0 0 0 0 0 0 -0 -0 -0 -0 -0 -0 -0 -0 -0 -0 -0 0 -0
0 0 0 0 0 0 0 0 0 0 0 0 0 0 0 0 0 0 -0 -0 -0 -0 -0 -0 -0 -0 -0 0 -0 -0 -0 -0
0 0 0 0 0 0 0 0 0 0 0 0 0 0 0 0 0 0 -0 -0 -0 0 0 0 0 0 0 0 0 -0 -0 -0
0 0 0 0 0 0 0 0 0 0 0 0 0 0 0 0 0 0 0 0 0 0 0 0 0 0 0 0 0 0 0 0
0 0 0 0 0 0 0 0 0 0 0 0 0 0 0 0 0 0 0 0 0 0 0 0 0 0 0 0 0 0 0 0
0 0 0 0 0 0 0 0 0 0 0 0 0 0 0 0 0 0 0 0 0 0 0 0 0 0 0 0 0 0 0 0
Wind_Speed_500mb
27 24 21 17 15 13 11 10 11 12 14 13 15 16 16 16 18 19 19 19 18 19 18 17 19 19 21 20 20 20 19 16
28 25 23 20 18 15 12 9 6 3 4 5 7 12 16 18 22 24 24 24 21 21 20 18 21 16 21 21 23 23 24 22
33 29 26 22 21 18 15 11 9 9 6 5 4 3 7 12 16 18 19 22 24 24 24 24 24 21 24 22 23 22 22 22
36 33 28 28 24 18 15 12 10 10 9 7 7 5 5 8 11 15 18 22 25 26 27 29 31 32 32 31 27 26 24 22
39 35 33 30 24 18 13 10 7 7 7 7 9 9 8 9 9 11 15 17 21 23 25 27 29 32 34 36 36 36 35 30
44 40 36 32 26 19 14 10 4 4 7 9 10 9 9 9 10 12 13 15 16 18 20 22 25 27 31 31 32 37 40 41
43 41 39 36 30 23 17 10 5 1 5 8 10 11 13 14 14 16 18 18 19 20 21 22 24 24 25 28 29 31 35 42
49 42 40 38 33 26 20 14 7 1 4 8 11 13 14 14 16 18 21 24 26 28 29 28 29 29 26 28 27 28 30 33
52 50 45 35 29 27 21 15 8 2 4 9 12 14 16 19 20 21 23 27 28 28 28 29 29 30 30 29 28 30 30 30
52 50 47 42 34 27 22 15 7 2 5 9 12 15 17 18 20 22 25 27 31 35 37 37 36 35 33 30 28 28 27 25
52 47 44 42 39 36 28 19 12 5 4 8 11 13 16 19 22 25 28 31 35 39 43 47 48 45 42 36 30 23 21 14
48 45 47 46 41 36 29 21 15 8 4 4 7 11 14 17 21 25 30 33 36 41 46 48 51 52 48 41 29 20 17 9
54 49 48 46 45 41 34 27 18 11 6 2 7 12 14 18 20 25 33 39 44 45 45 47 49 53 53 50 26 25 8 11
56 49 45 43 41 39 34 28 23 16 9 3 6 10 14 17 23 28 32 36 41 44 44 44 45 49 47 36 28 23 4 47
60 50 45 45 45 43 39 34 27 21 11 4 5 8 13 19 25 30 34 38 41 44 43 44 45 42 36 34 19 18 67 7
57 49 46 44 41 40 40 39 34 24 14 8 6 9 14 21 28 33 37 38 40 41 39 39 37 38 34 29 16 18 17 34
56 48 43 40 39 39 41 36 29 21 14 10 6 9 14 20 26 31 38 40 39 36 35 35 32 30 31 35 31 28 22 38
55 45 39 36 35 36 35 34 30 23 17 13 9 9 14 20 25 30 33 34 34 32 30 29 30 28 27 28 31 34 42 43
49 40 40 37 35 33 32 30 26 22 18 13 8 9 14 19 24 28 31 33 32 31 30 28 28 29 31 33 33 34 40 45
46 41 38 35 33 33 31 29 24 20 14 9 6 8 13 19 24 26 27 28 28 27 26 25 29 32 34 35 35 36 38 39
Wind_Direction_500mb
171 167 166 171 181 189 191 204 219 232 240 244 250 259 265 271 278 282 282 287 286 282 286 282 279 281 279 273 271 268 268 263
175 170 174 181 190 188 183 170 171 180 254 252 267 271 273 272 273 276 282 284 285 286 285 286 281 299 285 269 269 274 272 267
175 178 182 187 181 164 150 141 126 99 81 71 56 311 282 273 272 274 275 277 276 273 272 273 274 271 282 282 272 274 276 265
175 184 186 181 167 159 140 133 124 103 85 68 61 34 331 294 285 284 282 281 281 283 279 275 271 271 271 274 274 270 266 259
180 185 184 178 167 163 153 153 142 107 75 55 41 23 356 340 334 311 295 290 289 289 288 287 283 283 281 277 271 262 264 263
188 186 186 181 174 177 182 180 165 53 40 33 26 3 349 348 349 336 328 322 316 308 304 301 297 294 293 291 284 272 264 261
192 191 189 189 188 191 197 190 189 317 10 23 13 1 352 359 357 348 343 340 335 333 331 323 315 309 304 298 291 284 275 262
192 195 196 197 195 193 192 200 208 183 334 358 3 359 358 1 2 355 352 353 351 348 346 342 335 330 325 314 310 299 287 275
196 194 196 198 193 193 193 198 209 248 352 8 8 2 357 360 360 360 359 360 354 351 348 345 342 340 336 328 317 306 299 290
197 198 199 197 195 197 198 191 191 250 5 7 6 4 1 3 1 5 5 359 355 351 350 349 346 345 344 341 330 315 302 300
198 199 200 200 198 194 191 184 195 221 350 4 5 4 2 3 6 8 7 2 356 356 354 348 346 345 346 348 340 328 312 308
201 200 202 201 197 192 184 183 195 194 232 309 339 353 0 5 7 7 5 1 357 356 352 349 346 343 343 344 348 342 317 294
199 201 201 202 196 192 187 189 191 201 206 274 348 0 357 0 3 1 358 356 356 352 350 348 346 345 342 342 352 348 335 357
200 198 199 197 198 191 191 192 185 193 194 261 343 345 352 354 357 358 358 354 352 351 351 351 353 358 1 355 342 342 282 321
195 193 194 193 193 191 190 189 189 191 193 239 302 332 341 350 351 352 355 354 355 353 351 353 357 3 12 18 358 338 330 315
193 189 188 190 193 197 200 194 188 188 198 217 268 317 338 344 346 348 351 353 352 354 353 353 355 358 2 9 7 330 326 321
185 183 183 185 187 192 193 190 192 187 189 211 246 303 326 336 340 344 346 348 350 351 349 352 357 358 353 349 350 343 331 314
176 173 170 175 181 182 190 192 187 186 196 217 242 290 316 327 335 338 337 335 339 342 345 346 350 354 353 348 343 341 321 317
167 169 164 170 175 178 184 182 185 193 199 212 243 286 312 325 331 332 334 338 340 346 349 347 351 353 345 338 332 324 317 315
166 168 163 165 168 169 175 175 180 186 191 204 250 303 325 334 329 330 335 338 342 350 352 355 354 348 342 337 335 331 328 324
Wind_Speed_850mb
27 24 21 17 15 13 11 10 11 12 14 13 15 16 16 16 18 19 19 19 18 19 18 17 19 19 21 20 20 20 19 16
28 25 23 20 18 15 12 9 6 3 4 5 7 12 16 18 22 24 24 24 21 21 20 18 21 16 21 21 23 23 24 22
33 29 26 22 21 18 15 11 9 9 6 5 4 3 7 12 16 18 19 22 24 24 24 24 24 21 24 22 23 22 22 22
36 33 28 28 24 18 15 12 10 10 9 7 7 5 5 8 11 15 18 22 25 26 27 29 31 32 32 31 27 26 24 22
39 35 33 30 24 18 13 10 7 7 7 7 9 9 8 9 9 11 15 17 21 23 25 27 29 32 34 36 36 36 35 30
44 40 36 32 26 19 14 10 4 4 7 9 10 9 9 9 10 12 13 15 16 18 20 22 25 27 31 31 32 37 40 41
43 41 39 36 30 23 17 10 5 1 5 8 10 11 13 14 14 16 18 18 19 20 21 22 24 24 25 28 29 31 35 42
49 42 40 38 33 26 20 14 7 1 4 8 11 13 14 14 16 18 21 24 26 28 29 28 29 29 26 28 27 28 30 33
52 50 45 35 29 27 21 15 8 2 4 9 12 14 16 19 20 21 23 27 28 28 28 29 29 30 30 29 28 30 30 30
52 50 47 42 34 27 22 15 7 2 5 9 12 15 17 18 20 22 25 27 31 35 37 37 36 35 33 30 28 28 27 25
52 47 44 42 39 36 28 19 12 5 4 8 11 13 16 19 22 25 28 31 35 39 43 47 48 45 42 36 30 23 21 14
48 45 47 46 41 36 29 21 15 8 4 4 7 11 14 17 21 25 30 33 36 41 46 48 51 52 48 41 29 20 17 9
54 49 48 46 45 41 34 27 18 11 6 2 7 12 14 18 20 25 33 39 44 45 45 47 49 53 53 50 26 25 8 11
56 49 45 43 41 39 34 28 23 16 9 3 6 10 14 17 23 28 32 36 41 44 44 44 45 49 47 36 28 23 4 47
60 50 45 45 45 43 39 34 27 21 11 4 5 8 13 19 25 30 34 38 41 44 43 44 45 42 36 34 19 18 67 7
57 49 46 44 41 40 40 39 34 24 14 8 6 9 14 21 28 33 37 38 40 41 39 39 37 38 34 29 16 18 17 34
56 48 43 40 39 39 41 36 29 21 14 10 6 9 14 20 26 31 38 40 39 36 35 35 32 30 31 35 31 28 22 38
55 45 39 36 35 36 35 34 30 23 17 13 9 9 14 20 25 30 33 34 34 32 30 29 30 28 27 28 31 34 42 43
49 40 40 37 35 33 32 30 26 22 18 13 8 9 14 19 24 28 31 33 32 31 30 28 28 29 31 33 33 34 40 45
46 41 38 35 33 33 31 29 24 20 14 9 6 8 13 19 24 26 27 28 28 27 26 25 29 32 34 35 35 36 38 39
Wind_Direction_850mb
171 167 166 171 181 189 191 204 219 232 240 244 250 259 265 271 278 282 282 287 286 282 286 282 279 281 279 273 271 268 268 263
175 170 174 181 190 188 183 170 171 180 254 252 267 271 273 272 273 276 282 284 285 286 285 286 281 299 285 269 269 274 272 267
175 178 182 187 181 164 150 141 126 99 81 71 56 311 282 273 272 274 275 277 276 273 272 273 274 271 282 282 272 274 276 265
175 184 186 181 167 159 140 133 124 103 85 68 61 34 331 294 285 284 282 281 281 283 279 275 271 271 271 274 274 270 266 259
180 185 184 178 167 163 153 153 142 107 75 55 41 23 356 340 334 311 295 290 289 289 288 287 283 283 281 277 271 262 264 263
188 186 186 181 174 177 182 180 165 53 40 33 26 3 349 348 349 336 328 322 316 308 304 301 297 294 293 291 284 272 264 261
192 191 189 189 188 191 197 190 189 317 10 23 13 1 352 359 357 348 343 340 335 333 331 323 315 309 304 298 291 284 275 262
192 195 196 197 195 193 192 200 208 183 334 358 3 359 358 1 2 355 352 353 351 348 346 342 335 330 325 314 310 299 287 275
196 194 196 198 193 193 193 198 209 248 352 8 8 2 357 360 360 360 359 360 354 351 348 345 342 340 336 328 317 306 299 290
197 198 199 197 195 197 198 191 191 250 5 7 6 4 1 3 1 5 5 359 355 351 350 349 346 345 344 341 330 315 302 300
198 199 200 200 198 194 191 184 195 221 350 4 5 4 2 3 6 8 7 2 356 356 354 348 346 345 346 348 340 328 312 308
201 200 202 201 197 192 184 183 195 194 232 309 339 353 0 5 7 7 5 1 357 356 352 349 346 343 343 344 348 342 317 294
199 201 201 202 196 192 187 189 191 201 206 274 348 0 357 0 3 1 358 356 356 352 350 348 346 345 342 342 352 348 335 357
200 198 199 197 198 191 191 192 185 193 194 261 343 345 352 354 357 358 358 354 352 351 351 351 353 358 1 355 342 342 282 321
195 193 194 193 193 191 190 189 189 191 193 239 302 332 341 350 351 352 355 354 355 353 351 353 357 3 12 18 358 338 330 315
193 189 188 190 193 197 200 194 188 188 198 217 268 317 338 344 346 348 351 353 352 354 353 353 355 358 2 9 7 330 326 321
185 183 183 185 187 192 193 190 192 187 189 211 246 303 326 336 340 344 346 348 350 351 349 352 357 358 353 349 350 343 331 314
176 173 170 175 181 182 190 192 187 186 196 217 242 290 316 327 335 338 337 335 339 342 345 346 350 354 353 348 343 341 321 317
167 169 164 170 175 178 184 182 185 193 199 212 243 286 312 325 331 332 334 338 340 346 349 347 351 353 345 338 332 324 317 315
166 168 163 165 168 169 175 175 180 186 191 204 250 303 325 334 329 330 335 338 342 350 352 355 354 348 342 337 335 331 328 324